SUPERBIRD-B3

Last updated on Wed Sep 09 2026 00:03:02 GMT+0000 (Coordinated Universal Time)

1 43271U 18033A 26251.56909917 -.00000113 00000+0 00000+0 0 9998 2 43271 0.0203 128.4174 0001076 44.2328 181.8709 1.00271430 30890
UTC large
Height (km)
Speed (km/s)
/
Latitude / Longitude
Inclination (degrees)
Orbital Period (minutes)
Azimuth
Elevation
Range (km)
Doppler Factor

Next 0 passes for location: London (51.5072 / 0.1276)

No passes found over London.
SUPERBIRD-B3